Tracking 29892 objects as of 21-Nov-2024
HD Live streaming from Space Station
objects crossing your sky now

ONEWEB-0238

Track ONEWEB-0238 now!
10-day predictions
ONEWEB-0238 is classified as:


NORAD ID: 48784
Int'l Code: 2021-045T
Perigee: 1,207.6 km
Apogee: 1,210.2 km
Inclination: 87.9 °
Period: 109.5 minutes
Semi major axis: 7579 km
RCS: Unknown
Launch date: May 28, 2021
Source: United Kingdom (UK)
Launch site: VOSTOCHNY COSMODROME (VOSTO)
Your satellite tracking list
Your tracking list is empty




NASA's NSSDC Master Catalog

Two Line Element Set (TLE):
1 48784U 21045T   24325.09273224 -.00000304  00000-0 -84048-3 0  9994
2 48784  87.9095  13.4877 0001765 102.2370 257.8958 13.15548835168894
Source of the keplerian elements: AFSPC